Location: West Cummington
(42.4920°N, 72.9680°W)
Time: 15:49:34
(UTC-04:00)

Daily predictions for brighter satellites

Satellite Brightness Start Highest point End
(mag) Time Altitude Azimuth Time Altitude Azimuth Time Altitude Azimuth
Cosmos 2360 Rocket 3.4 20:09:09 10° SE 20:12:59 19° E 20:16:50 10° ENE
NOSS 2-3 (D) 4.3 20:09:02 10° S 20:13:19 37° ESE 20:18:09 10° NE
USA 267 3.7 20:07:05 10° SE 20:13:34 65° SW 20:20:07 10° NW
Cosmos 1980 Rocket 3.0 20:08:11 10° SW 20:13:43 59° WNW 20:19:16 10° NNE
Cosmos 2026 Rocket 4.2 20:07:28 10° S 20:13:48 88° W 20:20:15 10° N
Okean 1 3.6 20:12:17 10° NNW 20:16:17 73° W 20:20:14 10° S
Cosmos 1536 Rocket 3.9 20:12:13 10° N 20:16:23 44° ENE 20:20:31 10° SSE
Cosmos 1741 Rocket 4.4 20:13:03 10° N 20:18:07 47° ENE 20:23:11 10° SE
BREEZE-M DEB (TANK) 1.7 20:14:16 10° SW 20:18:45 67° SSE 20:20:54 10° ENE
Envisat 3.2 20:16:17 10° SSE 20:21:12 54° ENE 20:26:09 10° N
Lacrosse 5 rocket 2.6 20:19:00 10° WNW 20:22:19 32° SW 20:25:47 10° SSE
Cosmos 1939 Rocket 3.6 20:18:55 10° SE 20:22:31 33° ENE 20:26:04 10° N
Cosmos 1536 3.6 20:19:27 10° SSE 20:23:04 32° E 20:26:42 10° NNE
H-2A R/B 4.1 20:30:11 10° ENE 20:30:27 10° ENE 20:30:42 10° NE
Cosmos 44 4.5 20:29:56 10° NW 20:34:02 37° WSW 20:38:15 10° S
Cosmos 1655 Rocket 4.2 20:28:08 10° S 20:34:24 81° W 20:40:48 10° N
Meteor 2-4 Rocket 3.8 20:30:37 10° N 20:36:08 60° ENE 20:41:46 10° SSE
CZ-2D R/B 4.0 20:34:00 10° S 20:37:47 54° W 20:41:35 10° NNW
Okean 2 Rocket 4.5 20:33:42 10° SSW 20:37:58 43° WNW 20:42:19 10° N
ATLAS 2AS CENTAUR R/B 3.1 20:32:09 10° S 20:39:31 54° ESE 20:47:20 10° NE
CZ-4B DEB 4.1 20:43:53 17° E 20:44:42 19° ENE 20:46:49 10° NNE
Meteor 1-13 Rocket 4.5 20:38:46 10° NNW 20:44:45 83° W 20:50:41 10° S
BREEZE-M DEB (TANK) 2.6 20:42:15 10° SW 20:45:06 74° SE 20:53:01 10° ENE
BREEZE-M DEB (TANK) 3.9 20:44:09 10° WNW 20:47:33 53° SSW 20:59:04 12° SE
Cosmos 1110 Rocket 4.5 20:44:50 10° SSE 20:49:31 36° ESE 20:54:14 10° NE
NOSS 2-3 (E) 3.8 20:45:25 10° SSW 20:50:05 82° SE 20:55:33 10° NE
Helios 1B rocket 3.0 20:50:17 10° NNE 20:54:07 36° E 20:57:36 12° SSE
SPOT 5 4.4 20:54:21 15° E 20:56:15 19° ENE 20:59:29 10° NNE
USA 186 3.2 20:53:12 10° S 20:56:23 40° W 20:59:36 10° NNW
Lacrosse 5 1.8 20:53:33 10° SW 20:58:34 67° SE 21:03:37 10° NE
Cosmos 1850 Rocket 4.2 20:54:29 10° NNW 20:59:49 73° WSW 21:05:04 10° S
Cosmos 1331 Rocket 4.3 20:57:44 10° S 21:02:35 42° ESE 21:07:30 10° NNE
Atlas Centaur 2 4.0 20:57:43 10° WSW 21:04:34 29° SSW 21:08:53 17° SSE
SL-8 R/B 4.2 21:02:26 10° WNW 21:07:08 54° NNE 21:10:16 20° E
SeaSat 1 2.4 21:02:32 10° NNE 21:07:30 89° WNW 21:12:26 10° SSW
ARGOS 3.9 21:08:23 23° ESE 21:10:58 36° ENE 21:15:49 10° N
Cosmos 1607 4.1 21:07:10 10° NW 21:13:40 83° WSW 21:18:19 20° SSE
Okean 1 Rocket 3.0 21:13:24 10° S 21:17:45 86° W 21:22:09 10° N
Cosmos 220 Rocket 4.0 21:13:38 10° NNW 21:17:57 84° WSW 21:20:29 25° SSE
Cosmos 1300 Rocket 4.2 21:14:30 10° SSW 21:18:43 55° W 21:22:59 10° N
Cosmos 2263 Rocket 2.6 21:13:46 10° NNW 21:19:24 63° WSW 21:23:57 16° S
Cosmos 1025 Rocket 2.9 21:16:51 10° N 21:21:08 73° E 21:23:14 29° SSE
Cosmos 2278 Rocket 4.1 21:19:06 10° N 21:22:26 16° NE 21:24:48 12° ENE
Okean 2 3.3 21:19:08 10° N 21:23:13 65° E 21:24:45 36° SSE
Cosmos 2322 Rocket 3.3 21:18:25 10° SW 21:23:53 47° WNW 21:29:23 10° NNE
YAOGAN 6 3.1 21:22:13 20° S 21:24:29 56° W 21:27:58 10° NNW
Cosmos 1844 Rocket 3.5 21:21:11 10° N 21:26:23 35° ENE 21:28:30 27° E
Tiangong 1 2.1 21:24:35 10° W 21:26:47 30° SW 21:26:47 30° SW
Cosmos 1818 4.1 21:29:42 33° ESE 21:29:56 33° ESE 21:34:46 10° NE
Cosmos 2237 4.3 21:24:36 10° S 21:30:05 52° ESE 21:35:37 10° NE
Okean 1-7 Rocket 3.5 21:26:12 10° N 21:30:44 87° ENE 21:32:58 30° S
SPOT 1/Viking Rocket 4.4 21:30:03 29° E 21:31:26 33° ENE 21:36:04 10° N
Cosmos 2266 Rocket 4.4 21:25:53 10° SSW 21:31:52 63° W 21:37:52 10° N
Resurs 01 Rocket 4.2 21:29:20 10° SW 21:32:27 19° W 21:35:37 10° NW
SL-16 R/B 3.7 21:30:55 10° SW 21:36:10 38° WNW 21:41:27 10° N
USA 238 DEB 3.8 21:29:17 10° NNW 21:36:24 72° NE 21:39:57 32° SE
USA 238 3.8 21:29:23 10° NNW 21:36:30 72° NE 21:40:03 32° SE
Abrixas rocket 3.5 21:33:31 10° NW 21:36:34 34° NNE 21:37:17 30° NE
Cosmos 1515 3.5 21:33:18 10° N 21:37:08 80° E 21:37:54 55° SSE
Terra 3.5 21:38:02 18° ENE 21:38:20 18° ENE 21:41:33 10° NNE
Cosmos 2315 Rocket 4.0 21:32:35 10° N 21:38:52 83° W 21:43:24 20° S
Cosmos 1975 3.2 21:40:38 44° ENE 21:40:38 44° ENE 21:44:09 10° NNE
MetOp-B 4.1 21:38:08 34° SSE 21:40:30 75° ENE 21:45:52 10° N
Cosmos 2219 Rocket 3.3 21:42:46 25° E 21:42:46 25° E 21:46:15 10° NE
Helios 1A 4.0 21:41:23 19° SSW 21:44:04 44° W 21:48:09 10° NNW
Nadezhda 2 Rocket 4.5 21:37:59 10° S 21:44:07 85° W 21:50:24 10° N
Meteor 1-12 Rocket 4.4 21:43:44 39° SE 21:45:20 50° E 21:50:47 10° NNE
H-2A R/B 4.5 21:46:43 11° NE 21:46:43 11° NE 21:47:36 10° NE
Cosmos 2322 3.6 21:41:35 10° SSW 21:47:15 88° WNW 21:52:57 10° NNE
ERS-1 Rocket 3.0 21:46:40 34° S 21:48:54 78° WSW 21:53:58 10° NNW
ATLAS 3B R/B 2.6 21:44:27 10° NW 21:51:13 83° WSW 21:53:55 38° SSE
USA 245 3.7 21:51:09 52° SE 21:52:12 71° ENE 21:56:24 10° N
Cosmos 1500 3.1 21:52:07 67° SSW 21:52:36 86° W 21:56:30 10° N
Meteor 1-29 3.8 21:49:27 10° N 21:52:46 49° WNW 21:54:00 31° SW
Cosmos 2360 Rocket 2.6 21:50:52 10° SW 21:56:26 62° WNW 22:02:02 10° NNE
COSMOS 2428 2.6 21:55:48 35° S 21:58:09 63° ESE 22:03:49 10° NNE
Cosmos 1745 Rocket 4.0 22:01:10 47° SE 22:02:23 55° E 22:08:23 10° NNE
Cosmos 1844 3.9 21:59:19 10° NNW 22:04:54 54° ENE 22:05:53 48° E
H-2A R/B 1.8 22:08:23 65° SE 22:09:02 77° ENE 22:14:01 10° N
Cosmos 1892 Rocket 3.5 22:05:40 10° NNW 22:10:05 75° W 22:10:26 70° SW
Cosmos 2333 Rocket 3.1 22:13:05 32° ENE 22:13:05 32° ENE 22:16:38 10° NE
Cosmos 1238 Rocket 4.1 22:06:27 10° N 22:13:11 76° W 22:15:42 39° S
NOSS 3-2 (C) 4.3 22:05:55 10° NNW 22:13:16 58° NE 22:16:02 40° ESE
Cosmos 1437 Rocket 4.1 22:19:12 32° NNE 22:19:12 32° NNE 22:21:29 10° NNE
Cosmos 2333 4.0 22:16:47 45° SSW 22:18:36 85° ESE 22:24:15 10° NNE
Cosmos 1302 Rocket 4.3 22:19:34 26° SW 22:22:33 66° WNW 22:27:48 10° NNE
Cosmos 1544 Rocket 3.8 22:24:22 65° W 22:24:31 66° W 22:28:58 10° N
Cosmos 1486 Rocket 4.2 22:20:21 10° NNW 22:25:32 62° WSW 22:26:11 56° SW
Cosmos 1386 Rocket 4.4 22:25:46 63° SE 22:26:21 67° E 22:32:36 10° NNE
Cosmos 2237 Rocket 3.6 22:30:37 24° ENE 22:30:37 24° ENE 22:33:11 10° NE
ATLAS 2AS CENTAUR R/B 4.2 22:23:23 10° WSW 22:30:48 44° NW 22:38:31 10° NNE
SPOT 5 3.4 22:33:36 49° WSW 22:33:59 50° W 22:38:32 10° NNW
GP-B 4.2 22:29:39 10° N 22:32:32 37° NNE 22:32:32 37° NNE
BREEZE M DEB (TANK) 3.9 22:30:04 10° WSW 22:33:38 31° WSW 22:33:38 31° WSW
Cosmos 1455 Rocket 3.6 22:37:04 55° WNW 22:37:04 55° WNW 22:41:21 10° N
Cosmos 1666 4.5 22:39:56 28° N 22:39:56 28° N 22:41:50 10° N
CENTAUR R/B 3.9 22:33:15 10° NNW 22:40:29 40° NE 22:43:21 32° E
NOSS 3-4 (A) 3.4 22:41:27 66° E 22:41:27 66° E 22:47:19 10° NE
NOSS 3-4 (C) 3.5 22:41:37 65° E 22:41:37 65° E 22:47:25 10° NE
Lacrosse 5 3.7 22:37:27 10° W 22:41:54 30° NNW 22:46:22 10° NNE
ARGOS 4.5 22:49:54 27° WSW 22:51:12 31° W 22:55:56 10° NW
Nadezhda 1 Rocket 4.1 22:45:58 10° NNW 22:52:15 68° W 22:53:09 60° SW
Timation 1 Rocket 4.3 22:47:26 10° NNW 22:53:16 73° NE 22:53:16 73° NE
Meteor 1-21 4.4 22:55:50 10° NNW 23:01:12 68° W 23:01:12 68° W
DMSP B5D2-2 4.5 22:57:37 10° N 23:02:48 60° WNW 23:02:48 60° WNW
Cosmos 2278 Rocket 2.4 23:01:41 10° NNW 23:06:39 68° NNW 23:06:39 68° NNW
Cosmos 1709 Rocket 4.0 23:10:41 77° NNE 23:10:41 77° NNE 23:16:28 10° N
Cosmos 1844 Rocket 3.8 23:05:08 10° NW 23:10:09 35° WSW 23:10:09 35° WSW
Cosmos 2181 Rocket 4.1 23:04:38 10° N 23:10:38 71° NE 23:10:38 71° NE
Terra 2.9 23:16:55 41° NW 23:16:55 41° NW 23:20:20 10° NNW
H-2A R/B 3.8 23:23:50 31° NNW 23:23:50 31° NNW 23:26:11 10° NNW
NOSS 3-2 (A) 4.4 23:17:51 10° NW 23:25:09 50° WSW 23:25:38 50° SW
Cosmos 2219 Rocket 3.1 23:24:26 41° W 23:25:14 44° WNW 23:30:39 10° NNE
CZ-2C R/B 4.4 23:20:38 10° NNE 23:22:55 23° NE 23:22:55 23° NE
SL-16 R/B 3.7 23:39:45 27° NE 23:39:45 27° NE 23:42:18 10° NNE
H-2A R/B 4.5 23:49:01 12° W 23:49:01 12° W 23:51:02 10° WNW
